Year,Month,Day,Hour,Minute,Value (Times are PST for temperature in C)
2021,06,24,00,00,21.20
2021,06,24,00,01,21.20
2021,06,24,00,02,21.30
2021,06,24,00,03,21.30
2021,06,24,00,04,21.30
2021,06,24,00,05,21.30
2021,06,24,00,06,21.30
2021,06,24,00,07,21.40
2021,06,24,00,08,21.40
2021,06,24,00,09,21.40
2021,06,24,00,10,21.40
2021,06,24,00,11,21.40
2021,06,24,00,12,21.40
2021,06,24,00,13,21.40
2021,06,24,00,14,21.40
2021,06,24,00,15,21.40
2021,06,24,00,16,21.40
2021,06,24,00,17,21.30
2021,06,24,00,18,21.30
2021,06,24,00,19,21.30
2021,06,24,00,20,21.30
2021,06,24,00,21,21.30
2021,06,24,00,22,21.30
2021,06,24,00,23,21.30
2021,06,24,00,24,21.30
2021,06,24,00,25,21.30
2021,06,24,00,26,21.30
2021,06,24,00,27,21.30
2021,06,24,00,28,21.20
2021,06,24,00,29,21.20
2021,06,24,00,30,21.20
2021,06,24,00,31,21.20
2021,06,24,00,32,21.20
2021,06,24,00,33,21.20
2021,06,24,00,34,21.20
2021,06,24,00,35,21.20
2021,06,24,00,36,21.10
2021,06,24,00,37,21.10
2021,06,24,00,38,21.10
2021,06,24,00,39,21.10
2021,06,24,00,40,21.10
2021,06,24,00,41,21.10
2021,06,24,00,42,21.10
2021,06,24,00,43,21.00
2021,06,24,00,44,21.00
2021,06,24,00,45,21.00
2021,06,24,00,46,21.00
2021,06,24,00,47,20.90
2021,06,24,00,48,20.90
2021,06,24,00,49,20.90
2021,06,24,00,50,20.90
2021,06,24,00,51,20.90
2021,06,24,00,52,20.90
2021,06,24,00,53,20.90
2021,06,24,00,54,20.90
2021,06,24,00,55,20.90
2021,06,24,00,56,20.90
2021,06,24,00,57,20.90
2021,06,24,00,58,20.90
2021,06,24,00,59,20.90
2021,06,24,01,00,20.90
2021,06,24,01,01,20.90
2021,06,24,01,02,20.90
2021,06,24,01,03,20.90
2021,06,24,01,04,20.90
2021,06,24,01,05,20.80
2021,06,24,01,06,20.80
2021,06,24,01,07,20.80
2021,06,24,01,08,20.80
2021,06,24,01,09,20.80
2021,06,24,01,10,20.70
2021,06,24,01,11,20.70
2021,06,24,01,12,20.70
2021,06,24,01,13,20.70
2021,06,24,01,14,20.70
2021,06,24,01,15,20.60
2021,06,24,01,16,20.60
2021,06,24,01,17,20.60
2021,06,24,01,18,20.60
2021,06,24,01,19,20.60
2021,06,24,01,20,20.60
2021,06,24,01,21,20.60
2021,06,24,01,22,20.60
2021,06,24,01,23,20.60
2021,06,24,01,24,20.50
2021,06,24,01,25,20.50
2021,06,24,01,26,20.50
2021,06,24,01,27,20.50
2021,06,24,01,28,20.40
2021,06,24,01,29,20.40
2021,06,24,01,30,20.40
2021,06,24,01,31,20.40
2021,06,24,01,32,20.30
2021,06,24,01,33,20.30
2021,06,24,01,34,20.30
2021,06,24,01,35,20.30
2021,06,24,01,36,20.30
2021,06,24,01,37,20.30
2021,06,24,01,38,20.20
2021,06,24,01,39,20.20
2021,06,24,01,40,20.20
2021,06,24,01,41,20.20
2021,06,24,01,42,20.20
2021,06,24,01,43,20.20
2021,06,24,01,44,20.20
2021,06,24,01,45,20.10
2021,06,24,01,46,20.10
2021,06,24,01,47,20.10
2021,06,24,01,48,20.10
2021,06,24,01,49,20.10
2021,06,24,01,50,20.10
2021,06,24,01,51,20.10
2021,06,24,01,52,20.10
2021,06,24,01,53,20.10
2021,06,24,01,54,20.10
2021,06,24,01,55,20.10
2021,06,24,01,56,20.10
2021,06,24,01,57,20.00
2021,06,24,01,58,20.00
2021,06,24,01,59,20.00
2021,06,24,02,00,19.90
2021,06,24,02,01,19.90
2021,06,24,02,02,19.90
2021,06,24,02,03,19.80
2021,06,24,02,04,19.80
2021,06,24,02,05,19.80
2021,06,24,02,06,19.80
2021,06,24,02,07,19.80
2021,06,24,02,08,19.70
2021,06,24,02,09,19.70
2021,06,24,02,10,19.70
2021,06,24,02,11,19.70
2021,06,24,02,12,19.70
2021,06,24,02,13,19.60
2021,06,24,02,14,19.60
2021,06,24,02,15,19.60
2021,06,24,02,16,19.60
2021,06,24,02,17,19.60
2021,06,24,02,18,19.50
2021,06,24,02,19,19.50
2021,06,24,02,20,19.50
2021,06,24,02,21,19.40
2021,06,24,02,22,19.40
2021,06,24,02,23,19.40
2021,06,24,02,24,19.40
2021,06,24,02,25,19.30
2021,06,24,02,26,19.30
2021,06,24,02,27,19.30
2021,06,24,02,28,19.30
2021,06,24,02,29,19.30
2021,06,24,02,30,19.20
2021,06,24,02,31,19.20
2021,06,24,02,32,19.20
2021,06,24,02,33,19.20
2021,06,24,02,34,19.20
2021,06,24,02,35,19.20
2021,06,24,02,36,19.20
2021,06,24,02,37,19.20
2021,06,24,02,38,19.20
2021,06,24,02,39,19.20
2021,06,24,02,40,19.10
2021,06,24,02,41,19.10
2021,06,24,02,42,19.10
2021,06,24,02,43,19.10
2021,06,24,02,44,19.10
2021,06,24,02,45,19.00
2021,06,24,02,46,19.00
2021,06,24,02,47,19.00
2021,06,24,02,48,19.00
2021,06,24,02,49,19.00
2021,06,24,02,50,18.90
2021,06,24,02,51,18.90
2021,06,24,02,52,18.90
2021,06,24,02,53,18.90
2021,06,24,02,54,18.90
2021,06,24,02,55,18.90
2021,06,24,02,56,18.90
2021,06,24,02,57,18.90
2021,06,24,02,58,18.90
2021,06,24,02,59,18.90
2021,06,24,03,00,18.80
2021,06,24,03,01,18.80
2021,06,24,03,02,18.80
2021,06,24,03,03,18.80
2021,06,24,03,04,18.80
2021,06,24,03,05,18.80
2021,06,24,03,06,18.80
2021,06,24,03,07,18.80
2021,06,24,03,08,18.80
2021,06,24,03,09,18.80
2021,06,24,03,10,18.80
2021,06,24,03,11,18.80
2021,06,24,03,12,18.80
2021,06,24,03,13,18.80
2021,06,24,03,14,18.80
2021,06,24,03,15,18.80
2021,06,24,03,16,18.80
2021,06,24,03,17,18.80
2021,06,24,03,18,18.80
2021,06,24,03,19,18.70
2021,06,24,03,20,18.70
2021,06,24,03,21,18.70
2021,06,24,03,22,18.70
2021,06,24,03,23,18.70
2021,06,24,03,24,18.60
2021,06,24,03,25,18.60
2021,06,24,03,26,18.60
2021,06,24,03,27,18.60
2021,06,24,03,28,18.60
2021,06,24,03,29,18.60
2021,06,24,03,30,18.60
2021,06,24,03,31,18.60
2021,06,24,03,32,18.60
2021,06,24,03,33,18.60
2021,06,24,03,34,18.60
2021,06,24,03,35,18.60
2021,06,24,03,36,18.50
2021,06,24,03,37,18.60
2021,06,24,03,38,18.60
2021,06,24,03,39,18.60
2021,06,24,03,40,18.60
2021,06,24,03,41,18.60
2021,06,24,03,42,18.60
2021,06,24,03,43,18.60
2021,06,24,03,44,18.60
2021,06,24,03,45,18.60
2021,06,24,03,46,18.60
2021,06,24,03,47,18.60
2021,06,24,03,48,18.70
2021,06,24,03,49,18.70
2021,06,24,03,50,18.70
2021,06,24,03,51,18.70
2021,06,24,03,52,18.70
2021,06,24,03,53,18.70
2021,06,24,03,54,18.70
2021,06,24,03,55,18.70
2021,06,24,03,56,18.80
2021,06,24,03,57,18.70
2021,06,24,03,58,18.70
2021,06,24,03,59,18.70
2021,06,24,04,00,18.80
2021,06,24,04,01,18.80
2021,06,24,04,02,18.80
2021,06,24,04,03,18.80
2021,06,24,04,04,18.80
2021,06,24,04,05,18.80
2021,06,24,04,06,18.80
2021,06,24,04,07,18.80
2021,06,24,04,08,18.80
2021,06,24,04,09,18.80
2021,06,24,04,10,18.80
2021,06,24,04,11,18.80
2021,06,24,04,12,18.80
2021,06,24,04,13,18.80
2021,06,24,04,14,18.80
2021,06,24,04,15,18.80
2021,06,24,04,16,18.80
2021,06,24,04,17,18.80
2021,06,24,04,18,18.80
2021,06,24,04,19,18.80
2021,06,24,04,20,18.80
2021,06,24,04,21,18.70
2021,06,24,04,22,18.70
2021,06,24,04,23,18.70
2021,06,24,04,24,18.70
2021,06,24,04,25,18.70
2021,06,24,04,26,18.70
2021,06,24,04,27,18.60
2021,06,24,04,28,18.60
2021,06,24,04,29,18.60
2021,06,24,04,30,18.60
2021,06,24,04,31,18.60
2021,06,24,04,32,18.50
2021,06,24,04,33,18.50
2021,06,24,04,34,18.50
2021,06,24,04,35,18.40
2021,06,24,04,36,18.40
2021,06,24,04,37,18.40
2021,06,24,04,38,18.40
2021,06,24,04,39,18.30
2021,06,24,04,40,18.30
2021,06,24,04,41,18.30
2021,06,24,04,42,18.30
2021,06,24,04,43,18.30
2021,06,24,04,44,18.30
2021,06,24,04,45,18.20
2021,06,24,04,46,18.20
2021,06,24,04,47,18.20
2021,06,24,04,48,18.20
2021,06,24,04,49,18.20
2021,06,24,04,50,18.20
2021,06,24,04,51,18.20
2021,06,24,04,52,18.20
2021,06,24,04,53,18.10
2021,06,24,04,54,18.10
2021,06,24,04,55,18.10
2021,06,24,04,56,18.10
2021,06,24,04,57,18.10
2021,06,24,04,58,18.10
2021,06,24,04,59,18.10
2021,06,24,05,00,18.00
2021,06,24,05,01,18.00
2021,06,24,05,02,18.00
2021,06,24,05,03,18.00
2021,06,24,05,04,18.00
2021,06,24,05,05,18.00
2021,06,24,05,06,17.90
2021,06,24,05,07,17.90
2021,06,24,05,08,17.90
2021,06,24,05,09,17.90
2021,06,24,05,10,17.90
2021,06,24,05,11,17.90
2021,06,24,05,12,17.90
2021,06,24,05,13,17.90
2021,06,24,05,14,17.90
2021,06,24,05,15,17.90
2021,06,24,05,16,17.90
2021,06,24,05,17,17.90
2021,06,24,05,18,17.90
2021,06,24,05,19,17.90
2021,06,24,05,20,17.90
2021,06,24,05,21,17.90
2021,06,24,05,22,17.80
2021,06,24,05,23,17.80
2021,06,24,05,24,17.80
2021,06,24,05,25,17.80
2021,06,24,05,26,17.80
2021,06,24,05,27,17.80
2021,06,24,05,28,17.80
2021,06,24,05,29,17.80
2021,06,24,05,30,17.80
2021,06,24,05,31,17.90
2021,06,24,05,32,17.90
2021,06,24,05,33,17.90
2021,06,24,05,34,17.80
2021,06,24,05,35,17.80
2021,06,24,05,36,17.80
2021,06,24,05,37,17.80
2021,06,24,05,38,17.80
2021,06,24,05,39,17.80
2021,06,24,05,40,17.80
2021,06,24,05,41,17.80
2021,06,24,05,42,17.80
2021,06,24,05,43,17.80
2021,06,24,05,44,17.80
2021,06,24,05,45,17.80
2021,06,24,05,46,17.80
2021,06,24,05,47,17.80
2021,06,24,05,48,17.80
2021,06,24,05,49,17.80
2021,06,24,05,50,17.80
2021,06,24,05,51,17.80
2021,06,24,05,52,17.80
2021,06,24,05,53,17.80
2021,06,24,05,54,17.80
2021,06,24,05,55,17.80
2021,06,24,05,56,17.80
2021,06,24,05,57,17.70
2021,06,24,05,58,17.70
2021,06,24,05,59,17.70
2021,06,24,06,00,17.70
2021,06,24,06,01,17.70
2021,06,24,06,02,17.70
2021,06,24,06,03,17.70
2021,06,24,06,04,17.70
2021,06,24,06,05,17.70
2021,06,24,06,06,17.70
2021,06,24,06,07,17.70
2021,06,24,06,08,17.70
2021,06,24,06,09,17.70
2021,06,24,06,10,17.70
2021,06,24,06,11,17.70
2021,06,24,06,12,17.70
2021,06,24,06,13,17.70
2021,06,24,06,14,17.70
2021,06,24,06,15,17.70
2021,06,24,06,16,17.70
2021,06,24,06,17,17.70
2021,06,24,06,18,17.70
2021,06,24,06,19,17.70
2021,06,24,06,20,17.70
2021,06,24,06,21,17.70
2021,06,24,06,22,17.70
2021,06,24,06,23,17.70
2021,06,24,06,24,17.60
2021,06,24,06,25,17.60
2021,06,24,06,26,17.60
2021,06,24,06,27,17.60
2021,06,24,06,28,17.60
2021,06,24,06,29,17.60
2021,06,24,06,30,17.60
2021,06,24,06,31,17.60
2021,06,24,06,32,17.60
2021,06,24,06,33,17.60
2021,06,24,06,34,17.60
2021,06,24,06,35,17.60
2021,06,24,06,36,17.60
2021,06,24,06,37,17.60
2021,06,24,06,38,17.60
2021,06,24,06,39,17.60
2021,06,24,06,40,17.60
2021,06,24,06,41,17.60
2021,06,24,06,42,17.60
2021,06,24,06,43,17.60
2021,06,24,06,44,17.70
2021,06,24,06,45,17.70
2021,06,24,06,46,17.70
2021,06,24,06,47,17.70
2021,06,24,06,48,17.70
2021,06,24,06,49,17.70
2021,06,24,06,50,17.70
2021,06,24,06,51,17.70
2021,06,24,06,52,17.80
2021,06,24,06,53,17.80
2021,06,24,06,54,17.80
2021,06,24,06,55,17.80
2021,06,24,06,56,17.80
2021,06,24,06,57,17.90
2021,06,24,06,58,17.90
2021,06,24,06,59,17.90
2021,06,24,07,00,17.90
2021,06,24,07,01,17.90
2021,06,24,07,02,17.90
2021,06,24,07,03,17.90
2021,06,24,07,04,18.00
2021,06,24,07,05,18.00
2021,06,24,07,06,18.00
2021,06,24,07,07,18.00
2021,06,24,07,08,18.10
2021,06,24,07,09,18.10
2021,06,24,07,10,18.10
2021,06,24,07,11,18.20
2021,06,24,07,12,18.20
2021,06,24,07,13,18.20
2021,06,24,07,14,18.20
2021,06,24,07,15,18.20
2021,06,24,07,16,18.20
2021,06,24,07,17,18.20
2021,06,24,07,18,18.20
2021,06,24,07,19,18.20
2021,06,24,07,20,18.20
2021,06,24,07,21,18.20
2021,06,24,07,22,18.20
2021,06,24,07,23,18.30
2021,06,24,07,24,18.30
2021,06,24,07,25,18.30
2021,06,24,07,26,18.30
2021,06,24,07,27,18.40
2021,06,24,07,28,18.40
2021,06,24,07,29,18.40
2021,06,24,07,30,18.40
2021,06,24,07,31,18.40
2021,06,24,07,32,18.40
2021,06,24,07,33,18.40
2021,06,24,07,34,18.50
2021,06,24,07,35,18.50
2021,06,24,07,36,18.50
2021,06,24,07,37,18.60
2021,06,24,07,38,18.60
2021,06,24,07,39,18.70
2021,06,24,07,40,18.70
2021,06,24,07,41,18.70
2021,06,24,07,42,18.80
2021,06,24,07,43,18.80
2021,06,24,07,44,18.90
2021,06,24,07,45,18.90
2021,06,24,07,46,19.00
2021,06,24,07,47,19.00
2021,06,24,07,48,19.00
2021,06,24,07,49,19.00
2021,06,24,07,50,19.00
2021,06,24,07,51,18.90
2021,06,24,07,52,18.90
2021,06,24,07,53,18.90
2021,06,24,07,54,18.90
2021,06,24,07,55,18.90
2021,06,24,07,56,19.00
2021,06,24,07,57,19.00
2021,06,24,07,58,19.00
2021,06,24,07,59,19.00
2021,06,24,08,00,19.00
2021,06,24,08,01,19.00
2021,06,24,08,02,19.10
2021,06,24,08,03,19.10
2021,06,24,08,04,19.10
2021,06,24,08,05,19.00
2021,06,24,08,06,19.00
2021,06,24,08,07,19.00
2021,06,24,08,08,19.00
2021,06,24,08,09,19.00
2021,06,24,08,10,19.10
2021,06,24,08,11,19.10
2021,06,24,08,12,19.10
2021,06,24,08,13,19.10
2021,06,24,08,14,19.20
2021,06,24,08,15,19.20
2021,06,24,08,16,19.20
2021,06,24,08,17,19.20
2021,06,24,08,18,19.30
2021,06,24,08,19,19.30
2021,06,24,08,20,19.30
2021,06,24,08,21,19.30
2021,06,24,08,22,19.30
2021,06,24,08,23,19.30
2021,06,24,08,24,19.30
2021,06,24,08,25,19.30
2021,06,24,08,26,19.30
2021,06,24,08,27,19.40
2021,06,24,08,28,19.40
2021,06,24,08,29,19.40
2021,06,24,08,30,19.40
2021,06,24,08,31,19.50
2021,06,24,08,32,19.50
2021,06,24,08,33,19.50
2021,06,24,08,34,19.50
2021,06,24,08,35,19.40
2021,06,24,08,36,19.40
2021,06,24,08,37,19.40
2021,06,24,08,38,19.40
2021,06,24,08,39,19.50
2021,06,24,08,40,19.50
2021,06,24,08,41,19.50
2021,06,24,08,42,19.50
2021,06,24,08,43,19.50
2021,06,24,08,44,19.60
2021,06,24,08,45,19.60
2021,06,24,08,46,19.60
2021,06,24,08,47,19.60
2021,06,24,08,48,19.60
2021,06,24,08,49,19.60
2021,06,24,08,50,19.50
2021,06,24,08,51,19.50
2021,06,24,08,52,19.40
2021,06,24,08,53,19.40
2021,06,24,08,54,19.40
2021,06,24,08,55,19.40
2021,06,24,08,56,19.40
2021,06,24,08,57,19.40
2021,06,24,08,58,19.40
2021,06,24,08,59,19.40
2021,06,24,09,00,19.40
2021,06,24,09,01,19.40
2021,06,24,09,02,19.40
2021,06,24,09,03,19.40
2021,06,24,09,04,19.40
2021,06,24,09,05,19.40
2021,06,24,09,06,19.30
2021,06,24,09,07,19.20
2021,06,24,09,08,19.20
2021,06,24,09,09,19.20
2021,06,24,09,10,19.20
2021,06,24,09,11,19.20
2021,06,24,09,12,19.20
2021,06,24,09,13,19.20
2021,06,24,09,14,19.30
2021,06,24,09,15,19.30
2021,06,24,09,16,19.40
2021,06,24,09,17,19.40
2021,06,24,09,18,19.50
2021,06,24,09,19,19.50
2021,06,24,09,20,19.60
2021,06,24,09,21,19.50
2021,06,24,09,22,19.50
2021,06,24,09,23,19.40
2021,06,24,09,24,19.40
2021,06,24,09,25,19.40
2021,06,24,09,26,19.40
2021,06,24,09,27,19.40
2021,06,24,09,28,19.40
2021,06,24,09,29,19.30
2021,06,24,09,30,19.30
2021,06,24,09,31,19.30
2021,06,24,09,32,19.30
2021,06,24,09,33,19.30
2021,06,24,09,34,19.20
2021,06,24,09,35,19.20
2021,06,24,09,36,19.10
2021,06,24,09,37,19.10
2021,06,24,09,38,19.10
2021,06,24,09,39,19.10
2021,06,24,09,40,19.20
2021,06,24,09,41,19.20
2021,06,24,09,42,19.30
2021,06,24,09,43,19.30
2021,06,24,09,44,19.30
2021,06,24,09,45,19.30
2021,06,24,09,46,19.40
2021,06,24,09,47,19.50
2021,06,24,09,48,19.50
2021,06,24,09,49,19.60
2021,06,24,09,50,19.60
2021,06,24,09,51,19.70
2021,06,24,09,52,19.70
2021,06,24,09,53,19.70
2021,06,24,09,54,19.70
2021,06,24,09,55,19.70
2021,06,24,09,56,19.70
2021,06,24,09,57,19.70
2021,06,24,09,58,19.80
2021,06,24,09,59,19.80
2021,06,24,10,00,19.70
2021,06,24,10,01,19.70
2021,06,24,10,02,19.70
2021,06,24,10,03,19.70
2021,06,24,10,04,19.60
2021,06,24,10,05,19.60
2021,06,24,10,06,19.60
2021,06,24,10,07,19.60
2021,06,24,10,08,19.60
2021,06,24,10,09,19.60
2021,06,24,10,10,19.60
2021,06,24,10,11,19.60
2021,06,24,10,12,19.60
2021,06,24,10,13,19.60
2021,06,24,10,14,19.70
2021,06,24,10,15,19.70
2021,06,24,10,16,19.70
2021,06,24,10,17,19.70
2021,06,24,10,18,19.70
2021,06,24,10,19,19.80
2021,06,24,10,20,19.70
2021,06,24,10,21,19.80
2021,06,24,10,22,19.70
2021,06,24,10,23,19.70
2021,06,24,10,24,19.70
2021,06,24,10,25,19.60
2021,06,24,10,26,19.60
2021,06,24,10,27,19.60
2021,06,24,10,28,19.60
2021,06,24,10,29,19.60
2021,06,24,10,30,19.50
2021,06,24,10,31,19.40
2021,06,24,10,32,19.40
2021,06,24,10,33,19.30
2021,06,24,10,34,19.30
2021,06,24,10,35,19.20
2021,06,24,10,36,19.20
2021,06,24,10,37,19.20
2021,06,24,10,38,19.20
2021,06,24,10,39,19.20
2021,06,24,10,40,19.20
2021,06,24,10,41,19.30
2021,06,24,10,42,19.30
2021,06,24,10,43,19.40
2021,06,24,10,44,19.50
2021,06,24,10,45,19.60
2021,06,24,10,46,19.70
2021,06,24,10,47,19.80
2021,06,24,10,48,19.90
2021,06,24,10,49,19.90
2021,06,24,10,50,20.00
2021,06,24,10,51,20.10
2021,06,24,10,52,20.10
2021,06,24,10,53,20.10
2021,06,24,10,54,20.10
2021,06,24,10,55,20.10
2021,06,24,10,56,20.10
2021,06,24,10,57,20.10
2021,06,24,10,58,20.20
2021,06,24,10,59,20.20
2021,06,24,11,00,20.20
2021,06,24,11,01,20.20
2021,06,24,11,02,20.20
2021,06,24,11,03,20.20
2021,06,24,11,04,20.20
2021,06,24,11,05,20.20
2021,06,24,11,06,20.20
2021,06,24,11,07,20.20
2021,06,24,11,08,20.20
2021,06,24,11,09,20.20
2021,06,24,11,10,20.10
2021,06,24,11,11,20.10
2021,06,24,11,12,20.10
2021,06,24,11,13,20.00
2021,06,24,11,14,20.00
2021,06,24,11,15,20.00
2021,06,24,11,16,20.00
2021,06,24,11,17,20.00
2021,06,24,11,18,20.00
2021,06,24,11,19,19.90
2021,06,24,11,20,19.90
2021,06,24,11,21,19.90
2021,06,24,11,22,19.90
2021,06,24,11,23,19.90
2021,06,24,11,24,19.90
2021,06,24,11,25,19.90
2021,06,24,11,26,20.00
2021,06,24,11,27,20.00
2021,06,24,11,28,20.10
2021,06,24,11,29,20.10
2021,06,24,11,30,20.10
2021,06,24,11,31,20.20
2021,06,24,11,32,20.20
2021,06,24,11,33,20.30
2021,06,24,11,34,20.30
2021,06,24,11,35,20.30
2021,06,24,11,36,20.30
2021,06,24,11,37,20.30
2021,06,24,11,38,20.40
2021,06,24,11,39,20.40
2021,06,24,11,40,20.40
2021,06,24,11,41,20.40
2021,06,24,11,42,20.40
2021,06,24,11,43,20.40
2021,06,24,11,44,20.40
2021,06,24,11,45,20.50
2021,06,24,11,46,20.50
2021,06,24,11,47,20.50
2021,06,24,11,48,20.60
2021,06,24,11,49,20.60
2021,06,24,11,50,20.60
2021,06,24,11,51,20.70
2021,06,24,11,52,20.70
2021,06,24,11,53,20.80
2021,06,24,11,54,20.90
2021,06,24,11,55,20.90
2021,06,24,11,56,20.90
2021,06,24,11,57,20.90
2021,06,24,11,58,21.00
2021,06,24,11,59,21.00
2021,06,24,12,00,21.00
2021,06,24,12,01,21.00
2021,06,24,12,02,21.00
2021,06,24,12,03,21.00
2021,06,24,12,04,20.90
2021,06,24,12,05,20.90
2021,06,24,12,06,20.90
2021,06,24,12,07,20.90
2021,06,24,12,08,20.90
2021,06,24,12,09,21.00
2021,06,24,12,10,21.10
2021,06,24,12,11,21.20
2021,06,24,12,12,21.30
2021,06,24,12,13,21.40
2021,06,24,12,14,21.40
2021,06,24,12,15,21.40
2021,06,24,12,16,21.40
2021,06,24,12,17,21.40
2021,06,24,12,18,21.50
2021,06,24,12,19,21.60
2021,06,24,12,20,21.70
2021,06,24,12,21,21.80
2021,06,24,12,22,21.80
2021,06,24,12,23,21.80
2021,06,24,12,24,21.90
2021,06,24,12,25,21.90
2021,06,24,12,26,22.00
2021,06,24,12,27,22.00
2021,06,24,12,28,22.00
2021,06,24,12,29,22.00
2021,06,24,12,30,22.10
2021,06,24,12,31,22.10
2021,06,24,12,32,22.20
2021,06,24,12,33,22.20
2021,06,24,12,34,22.20
2021,06,24,12,35,22.20
2021,06,24,12,36,22.20
2021,06,24,12,37,22.20
2021,06,24,12,38,22.30
2021,06,24,12,39,22.30
2021,06,24,12,40,22.30
2021,06,24,12,41,22.30
2021,06,24,12,42,22.30
2021,06,24,12,43,22.30
2021,06,24,12,44,22.30
2021,06,24,12,45,22.40
2021,06,24,12,46,22.40
2021,06,24,12,47,22.50
2021,06,24,12,48,22.50
2021,06,24,12,49,22.60
2021,06,24,12,50,22.60
2021,06,24,12,51,22.70
2021,06,24,12,52,22.80
2021,06,24,12,53,22.80
2021,06,24,12,54,22.80
2021,06,24,12,55,22.80
2021,06,24,12,56,22.70
2021,06,24,12,57,22.70
2021,06,24,12,58,22.60
2021,06,24,12,59,22.70
2021,06,24,13,00,22.60
2021,06,24,13,01,22.60
2021,06,24,13,02,22.60
2021,06,24,13,03,22.60
2021,06,24,13,04,22.50
2021,06,24,13,05,22.50
2021,06,24,13,06,22.40
2021,06,24,13,07,22.40
2021,06,24,13,08,22.40
2021,06,24,13,09,22.40
2021,06,24,13,10,22.40
2021,06,24,13,11,22.40
2021,06,24,13,12,22.50
2021,06,24,13,13,22.60
2021,06,24,13,14,22.60
2021,06,24,13,15,22.70
2021,06,24,13,16,22.70
2021,06,24,13,17,22.70
2021,06,24,13,18,22.70
2021,06,24,13,19,22.70
2021,06,24,13,20,22.70
2021,06,24,13,21,22.70
2021,06,24,13,22,22.70
2021,06,24,13,23,22.60
2021,06,24,13,24,22.50
2021,06,24,13,25,22.40
2021,06,24,13,26,22.40
2021,06,24,13,27,22.30
2021,06,24,13,28,22.30
2021,06,24,13,29,22.20
2021,06,24,13,30,22.20
2021,06,24,13,31,22.20
2021,06,24,13,32,22.20
2021,06,24,13,33,22.20
2021,06,24,13,34,22.20
2021,06,24,13,35,22.20
2021,06,24,13,36,22.20
2021,06,24,13,37,22.20
2021,06,24,13,38,22.20
2021,06,24,13,39,22.20
2021,06,24,13,40,22.20
2021,06,24,13,41,22.20
2021,06,24,13,42,22.20
2021,06,24,13,43,22.30
2021,06,24,13,44,22.40
2021,06,24,13,45,22.50
2021,06,24,13,46,22.60
2021,06,24,13,47,22.60
2021,06,24,13,48,22.60
2021,06,24,13,49,22.60
2021,06,24,13,50,22.70
2021,06,24,13,51,22.70
2021,06,24,13,52,22.70
2021,06,24,13,53,22.70
2021,06,24,13,54,22.60
2021,06,24,13,55,22.60
2021,06,24,13,56,22.50
2021,06,24,13,57,22.40
2021,06,24,13,58,22.40
2021,06,24,13,59,22.50
2021,06,24,14,00,22.50
2021,06,24,14,01,22.40
2021,06,24,14,02,22.40
2021,06,24,14,03,22.40
2021,06,24,14,04,22.40
2021,06,24,14,05,22.40
2021,06,24,14,06,22.40
2021,06,24,14,07,22.50
2021,06,24,14,08,22.50
2021,06,24,14,09,22.60
2021,06,24,14,10,22.60
2021,06,24,14,11,22.60
2021,06,24,14,12,22.70
2021,06,24,14,13,22.70
2021,06,24,14,14,22.80
2021,06,24,14,15,22.80
2021,06,24,14,16,22.90
2021,06,24,14,17,23.00
2021,06,24,14,18,23.10
2021,06,24,14,19,23.20
2021,06,24,14,20,23.30
2021,06,24,14,21,23.50
2021,06,24,14,22,23.60
2021,06,24,14,23,23.70
2021,06,24,14,24,23.80
2021,06,24,14,25,23.90
2021,06,24,14,26,23.90
2021,06,24,14,27,24.00
2021,06,24,14,28,24.00
2021,06,24,14,29,24.10
2021,06,24,14,30,24.20
2021,06,24,14,31,24.30
2021,06,24,14,32,24.40
2021,06,24,14,33,24.50
2021,06,24,14,34,24.50
2021,06,24,14,35,24.50
2021,06,24,14,36,24.50
2021,06,24,14,37,24.50
2021,06,24,14,38,24.50
2021,06,24,14,39,24.50
2021,06,24,14,40,24.50
2021,06,24,14,41,24.50
2021,06,24,14,42,24.50
2021,06,24,14,43,24.50
2021,06,24,14,44,24.60
2021,06,24,14,45,24.50
2021,06,24,14,46,24.50
2021,06,24,14,47,24.40
2021,06,24,14,48,24.40
2021,06,24,14,49,24.40
2021,06,24,14,50,24.40
2021,06,24,14,51,24.30
2021,06,24,14,52,24.30
2021,06,24,14,53,24.30
2021,06,24,14,54,24.40
2021,06,24,14,55,24.50
2021,06,24,14,56,24.60
2021,06,24,14,57,24.70
2021,06,24,14,58,24.70
2021,06,24,14,59,24.70
2021,06,24,15,00,24.80
2021,06,24,15,01,24.80
2021,06,24,15,02,24.80
2021,06,24,15,03,24.80
2021,06,24,15,04,24.70
2021,06,24,15,05,24.70
2021,06,24,15,06,24.60
2021,06,24,15,07,24.60
2021,06,24,15,08,24.60
2021,06,24,15,09,24.60
2021,06,24,15,10,24.70
2021,06,24,15,11,24.70
2021,06,24,15,12,24.80
2021,06,24,15,13,24.80
2021,06,24,15,14,24.90
2021,06,24,15,15,24.90
2021,06,24,15,16,25.00
2021,06,24,15,17,25.10
2021,06,24,15,18,25.10
2021,06,24,15,19,25.20
2021,06,24,15,20,25.20
2021,06,24,15,21,25.20
2021,06,24,15,22,25.30
2021,06,24,15,23,25.30
2021,06,24,15,24,25.40
2021,06,24,15,25,25.50
2021,06,24,15,26,25.60
2021,06,24,15,27,25.60
2021,06,24,15,28,25.60
2021,06,24,15,29,25.60
2021,06,24,15,30,25.60
2021,06,24,15,31,25.60
2021,06,24,15,32,25.70
2021,06,24,15,33,25.80
2021,06,24,15,34,25.80
2021,06,24,15,35,25.70
2021,06,24,15,36,25.70
2021,06,24,15,37,25.70
2021,06,24,15,38,25.80
2021,06,24,15,39,25.80
2021,06,24,15,40,25.80
2021,06,24,15,41,25.80
2021,06,24,15,42,25.80
2021,06,24,15,43,25.80
2021,06,24,15,44,25.80
2021,06,24,15,45,25.80
2021,06,24,15,46,25.80
2021,06,24,15,47,25.70
2021,06,24,15,48,25.80
2021,06,24,15,49,25.90
2021,06,24,15,50,25.90
2021,06,24,15,51,25.90
2021,06,24,15,52,25.90
2021,06,24,15,53,25.80
2021,06,24,15,54,25.80
2021,06,24,15,55,25.80
2021,06,24,15,56,25.80
2021,06,24,15,57,25.90
2021,06,24,15,58,25.90
2021,06,24,15,59,25.90
2021,06,24,16,00,25.90
2021,06,24,16,01,25.90
2021,06,24,16,02,26.00
2021,06,24,16,03,26.00
2021,06,24,16,04,26.10
2021,06,24,16,05,26.00
2021,06,24,16,06,26.10
2021,06,24,16,07,26.10
2021,06,24,16,08,26.20
2021,06,24,16,09,26.30
2021,06,24,16,10,26.30
2021,06,24,16,11,26.20
2021,06,24,16,12,26.20
2021,06,24,16,13,26.20
2021,06,24,16,14,26.20
2021,06,24,16,15,26.20
2021,06,24,16,16,26.20
2021,06,24,16,17,26.20
2021,06,24,16,18,26.20
2021,06,24,16,19,26.20
2021,06,24,16,20,26.20
2021,06,24,16,21,26.30
2021,06,24,16,22,26.30
2021,06,24,16,23,26.30
2021,06,24,16,24,26.30
2021,06,24,16,25,26.30
2021,06,24,16,26,26.30
2021,06,24,16,27,26.30
2021,06,24,16,28,26.30
2021,06,24,16,29,26.20
2021,06,24,16,30,26.30
2021,06,24,16,31,26.30
2021,06,24,16,32,26.30
2021,06,24,16,33,26.40
2021,06,24,16,34,26.40
2021,06,24,16,35,26.30
2021,06,24,16,36,26.30
2021,06,24,16,37,26.30
2021,06,24,16,38,26.40
2021,06,24,16,39,26.40
2021,06,24,16,40,26.40
2021,06,24,16,41,26.40
2021,06,24,16,42,26.40
2021,06,24,16,43,26.50
2021,06,24,16,44,26.50
2021,06,24,16,45,26.60
2021,06,24,16,46,26.60
2021,06,24,16,47,26.60
2021,06,24,16,48,26.60
2021,06,24,16,49,26.60
2021,06,24,16,50,26.60
2021,06,24,16,51,26.60
2021,06,24,16,52,26.60
2021,06,24,16,53,26.60
2021,06,24,16,54,26.60
2021,06,24,16,55,26.60
2021,06,24,16,56,26.60
2021,06,24,16,57,26.60
2021,06,24,16,58,26.60
2021,06,24,16,59,26.60
2021,06,24,17,00,26.60
2021,06,24,17,01,26.60
2021,06,24,17,02,26.60
2021,06,24,17,03,26.70
2021,06,24,17,04,26.70
2021,06,24,17,05,26.70
2021,06,24,17,06,26.70
2021,06,24,17,07,26.70
2021,06,24,17,08,26.70
2021,06,24,17,09,26.70
2021,06,24,17,10,26.70
2021,06,24,17,11,26.80
2021,06,24,17,12,26.70
2021,06,24,17,13,26.70
2021,06,24,17,14,26.70
2021,06,24,17,15,26.80
2021,06,24,17,16,26.80
2021,06,24,17,17,26.80
2021,06,24,17,18,26.90
2021,06,24,17,19,26.90